Back to catalog

STARLINK-3912

AliveCommunicationsVLEO
NORAD 52502·PAYLOAD·🇺🇸 United States

Launched May 6, 2022 from Cape Canaveral Space Force Station

Loading…

Next Passes (next 24 hours)

TLE

FreshSource: CelesTrak SupGP

Epoch: Sep 14, 2026, 21:34 UTC

1 52502C 22049BD  26257.89909722  .00052916  00000+0  15146-2 0  2577
2 52502  53.1568 263.6346 0001158  86.3769 208.7154 15.35359346    10

Track STARLINK-3912 in real time with AllMySat

Download on the App Store